Location: Sevilla
(37.3933°N, 5.9839°W)
Time: 12:25:10
(UTC+02:00)

S-56A Canister/Altair - Pass Details

Date: 25 June 2024
Orbit: 638 x 2488 km, 38.9° (Epoch: 14 July)

Event Time Altitude Azimuth Distance (km) Brightness Sun altitude
Rises 23:39:41 0° 263° (W) 4,024 11.7 -17.6°
Reaches altitude 10° 23:42:03 10° 264° (W) 3,265 11.2 -17.9°
Maximum altitude 23:50:34 85° 353° (N) 1,705 9.2 -19.0°
Drops below altitude 10° 00:03:31 10° 83° (E) 4,777 11.3 -20.5°
Sets 00:07:44 0° 84° (E) 5,957 11.8 -21.0°
